Stations météo

réclame
Mon MeteoGroup
Magdeburg, Allemagne (10361): Température de l'air & dewpoint: 03.07.2020 23:00:00 - 09.07.2020 23:00:00 (CEST)Magdeburg, Allemagne (10361): Température de l'air 5cm & Température de l'air -5cm: 03.07.2020 23:00:00 - 09.07.2020 23:00:00 (CEST)Magdeburg, Allemagne (10361): Température de l'air -20cm & Température de l'air -100cm: 03.07.2020 23:00:00 - 09.07.2020 23:00:00 (CEST)Magdeburg, Allemagne (10361): Vitesse du vent & gusts: 03.07.2020 23:00:00 - 09.07.2020 23:00:00 (CEST)Magdeburg, Allemagne (10361): Direction du vent: 03.07.2020 23:00:00 - 09.07.2020 23:00:00 (CEST)Magdeburg, Allemagne (10361): reduced air pressure: 03.07.2020 23:00:00 - 09.07.2020 23:00:00 (CEST)Magdeburg, Allemagne (10361): visibility: 03.07.2020 23:00:00 - 09.07.2020 23:00:00 (CEST)Magdeburg, Allemagne (10361): Ensoleillement: 03.07.2020 23:00:00 - 09.07.2020 23:00:00 (CEST)Magdeburg, Allemagne (10361): Quantités de précipitations: 03.07.2020 23:00:00 - 09.07.2020 23:00:00 (CEST)
Date & Time tt [°C] td [°C] tt 5cm [°C] tt -5cm [°C] tt -20cm [°C] tt -100cm [°C] ff [km/h] ff [knt] fx [km/h] fx [knt] dd ppp [hPa] vv [km] sd [min] rr [mm]
09.07.2020 23:00:00 - - - - - - - - - - - - - - -
09.07.2020 22:00:00 18,8 15,4 16,9 18,8 20,0 17,3 10 6 16 9 W 1011,4 55 0 0,0
09.07.2020 21:00:00 19,0 16,3 17,6 19,9 20,1 17,3 12 6 48 26 WSW 1011,4 51 0 0,3
09.07.2020 20:00:00 21,4 14,9 20,4 21,6 20,0 17,3 19 10 36 19 W 1010,9 43 1 0,0
09.07.2020 19:00:00 22,2 14,9 20,4 22,1 19,9 17,3 18 10 32 17 W 1010,7 43 0 0,0
09.07.2020 18:00:00 23,0 14,4 22,6 23,5 19,7 17,3 18 10 29 16 W 1010,5 55 0 0,0
09.07.2020 17:00:00 21,6 16,1 22,0 23,0 19,4 17,3 12 7 30 16 SW 1011,1 66 3 0,0
09.07.2020 16:00:00 20,7 16,2 19,6 22,7 19,1 17,3 21 11 44 24 SW 1011,5 72 2 0,1
09.07.2020 15:00:00 21,1 15,8 21,9 24,0 18,9 17,3 12 7 23 12 SW 1011,7 75 7 0,0
09.07.2020 14:00:00 19,8 15,9 19,4 21,2 18,6 17,3 13 7 27 14 SW 1012,2 29 0 0,0
09.07.2020 13:00:00 19,1 15,1 19,8 21,3 18,5 17,3 14 8 30 16 SSW 1012,4 59 0 0,0
09.07.2020 12:00:00 17,2 14,9 17,6 20,2 18,3 17,3 13 7 31 17 S 1012,9 24 0 0,1
09.07.2020 11:00:00 16,9 14,2 16,6 19,7 18,2 17,3 12 6 26 14 S 1013,4 18 0 0,1
09.07.2020 10:00:00 16,5 13,3 17,0 18,7 18,1 17,4 14 8 24 13 S 1014,2 44 0 0,0
09.07.2020 09:00:00 16,8 13,3 17,4 18,5 18,1 17,4 9 5 23 13 S 1014,3 39 0 0,0
09.07.2020 08:00:00 16,3 12,8 16,8 17,7 18,1 17,4 11 6 19 10 SSW 1015,0 40 1 0,0
09.07.2020 07:00:00 15,0 12,7 15,1 16,6 18,2 17,4 4 2 11 6 SSE 1015,1 28 0 0,0
09.07.2020 06:00:00 14,3 12,4 13,8 15,8 18,3 17,4 5 3 9 5 SSE 1015,3 15 0 0,0
09.07.2020 05:00:00 14,2 12,5 13,5 15,7 18,5 17,4 3 2 8 4 SSE 1015,7 11 0 0,0
09.07.2020 04:00:00 14,0 12,4 13,5 15,8 18,6 17,4 3 2 5 3 SSE 1015,5 11 0 0,0
09.07.2020 03:00:00 13,7 12,4 12,8 15,7 18,8 17,4 0 0 4 2 N 1016,3 14 0 0,0
09.07.2020 02:00:00 14,0 12,4 13,4 16,1 19,0 17,4 2 1 5 3 WSW 1016,5 17 0 0,0
09.07.2020 01:00:00 13,7 12,4 11,6 16,0 19,2 17,4 3 1 6 3 SW 1016,7 14 0 0,0
09.07.2020 00:00:00 14,0 12,5 13,0 16,3 19,4 17,4 3 2 8 4 WNW 1017,1 16 0 0,0
08.07.2020 23:00:00 14,5 12,7 13,4 16,9 19,6 17,4 3 2 16 8 W 1017,0 8 0 0,0
08.07.2020 22:00:00 15,9 12,3 15,2 17,9 19,8 17,4 8 4 14 7 W 1016,7 29 0 0,0
08.07.2020 21:00:00 16,4 12,2 15,9 18,9 19,8 17,4 5 3 11 6 W 1016,3 46 0 0,0
08.07.2020 20:00:00 17,0 11,6 17,0 20,1 19,8 17,4 5 3 16 9 WNW 1015,9 58 2 0,0
08.07.2020 19:00:00 17,2 11,5 18,2 20,9 19,7 17,4 7 4 20 11 W 1015,8 42 0 0,0
08.07.2020 18:00:00 16,9 11,2 17,1 21,1 19,4 17,4 10 5 19 10 W 1015,9 56 1 0,0
08.07.2020 17:00:00 17,5 11,4 19,9 24,4 19,2 17,4 8 5 20 11 W 1015,9 45 9 0,0
08.07.2020 16:00:00 16,5 11,2 17,9 21,2 18,9 17,4 8 5 19 11 W 1016,0 44 0 0,0
08.07.2020 15:00:00 16,2 11,0 19,0 22,2 18,7 17,4 10 5 18 10 W 1015,9 62 0 0,0
08.07.2020 14:00:00 14,8 11,2 15,5 19,6 18,7 17,4 7 4 13 7 W 1016,1 40 0 0,0
08.07.2020 13:00:00 13,9 11,1 14,0 18,3 18,7 17,4 3 2 10 5 WNW 1016,1 46 0 0,0
08.07.2020 12:00:00 13,5 10,7 13,7 18,8 18,6 17,4 5 3 13 7 NW 1016,0 46 0 0,0
08.07.2020 11:00:00 13,2 11,4 13,6 17,8 18,7 17,4 5 3 10 5 NNW 1015,7 40 0 0,1
08.07.2020 10:00:00 12,3 10,4 11,6 16,2 18,8 17,5 3 2 6 4 WNW 1015,8 5 0 0,3
08.07.2020 09:00:00 12,7 10,5 12,3 16,2 19,0 17,5 3 1 5 3 WNW 1015,7 16 0 0,4
08.07.2020 08:00:00 13,0 10,1 12,6 16,2 19,2 17,5 4 2 6 4 N 1015,4 27 0 0,0
08.07.2020 07:00:00 12,7 10,4 11,8 15,6 19,4 17,5 2 1 8 4 NNW 1015,4 20 0 0,1
08.07.2020 06:00:00 12,9 10,6 12,1 15,5 19,6 17,5 5 3 8 4 SW 1015,6 39 0 0,0
08.07.2020 05:00:00 12,8 10,2 11,8 15,4 19,9 17,5 5 3 13 7 SW 1015,8 45 0 0,0
08.07.2020 04:00:00 13,1 10,3 11,8 15,6 20,2 17,5 8 4 16 9 WSW 1015,9 44 0 0,0
08.07.2020 03:00:00 13,2 11,0 11,8 16,1 20,6 17,5 6 4 11 6 SW 1016,3 39 0 0,0
08.07.2020 02:00:00 13,4 11,8 12,2 16,6 20,9 17,5 6 4 13 7 SW 1016,6 28 0 0,0
08.07.2020 01:00:00 13,5 11,7 12,3 17,1 21,2 17,5 7 4 12 6 SW 1017,0 34 0 0,1
08.07.2020 00:00:00 13,8 11,2 12,5 17,8 21,6 17,5 6 3 9 5 WSW 1017,0 36 0 0,1
07.07.2020 23:00:00 13,9 11,0 13,0 18,3 22,0 17,5 5 3 12 6 W 1017,1 55 0 0,0
07.07.2020 22:00:00 14,2 10,7 13,4 18,9 22,4 17,5 6 3 19 11 W 1017,3 52 0 0,0
07.07.2020 21:00:00 14,5 10,9 12,8 20,1 22,6 17,5 10 5 41 22 W 1017,0 52 0 0,2
07.07.2020 20:00:00 18,3 7,3 17,7 22,8 22,7 17,5 14 8 32 17 W 1016,5 62 0 0,0
07.07.2020 19:00:00 19,9 5,7 19,6 25,5 22,6 17,5 11 6 31 17 W 1016,2 59 3 0,0
07.07.2020 18:00:00 20,5 5,8 21,1 28,6 22,3 17,5 14 8 30 16 W 1016,6 55 34 0,0
07.07.2020 17:00:00 19,7 5,3 20,8 29,8 21,9 17,5 18 10 30 16 WSW 1017,4 63 28 0,0
07.07.2020 16:00:00 19,8 5,8 22,9 29,4 21,4 17,5 11 6 35 19 W 1017,8 68 23 0,0
07.07.2020 15:00:00 18,9 5,3 21,3 30,6 20,7 17,5 14 7 33 18 W 1018,4 74 37 0,0
07.07.2020 14:00:00 18,7 6,0 23,1 29,6 20,0 17,5 14 8 29 15 W 1018,9 47 30 0,0
07.07.2020 13:00:00 18,3 5,3 21,9 30,2 19,4 17,5 13 7 35 19 W 1019,2 52 38 0,0
07.07.2020 12:00:00 16,9 5,9 21,7 24,8 18,9 17,5 11 6 34 19 W 1019,4 55 26 0,0
07.07.2020 11:00:00 16,8 6,0 22,6 25,8 18,5 17,5 16 8 29 15 W 1019,6 41 37 0,0
07.07.2020 10:00:00 16,5 7,3 21,0 22,8 18,2 17,5 12 7 27 15 W 1019,7 38 49 0,0
07.07.2020 09:00:00 14,7 8,3 19,1 19,8 18,1 17,5 11 6 25 13 W 1020,0 35 54 0,0
07.07.2020 08:00:00 13,7 9,2 16,4 16,6 18,2 17,5 12 6 25 13 W 1020,4 43 60 0,0
07.07.2020 07:00:00 12,1 9,5 12,7 13,6 18,5 17,5 9 5 16 8 WSW 1020,3 33 60 0,0
07.07.2020 06:00:00 10,4 9,1 8,2 12,7 18,8 17,5 5 3 11 6 SW 1019,9 31 3 0,0
07.07.2020 05:00:00 11,0 9,5 10,0 13,3 19,1 17,5 5 3 16 8 WSW 1019,5 35 0 0,0
07.07.2020 04:00:00 11,1 9,4 9,0 13,3 19,5 17,5 9 5 17 9 W 1019,1 34 0 0,0
07.07.2020 03:00:00 11,2 9,4 9,0 13,6 19,8 17,5 8 4 19 10 W 1018,9 37 0 0,0
07.07.2020 02:00:00 11,8 9,6 9,9 14,1 20,2 17,5 10 6 19 10 W 1018,6 48 0 0,0
07.07.2020 01:00:00 11,8 9,4 10,0 14,6 20,6 17,6 7 4 19 10 W 1018,2 61 0 0,0
07.07.2020 00:00:00 12,5 9,2 11,0 15,3 21,0 17,6 9 5 29 16 W 1017,7 54 0 0,0
06.07.2020 23:00:00 13,5 9,2 11,9 15,9 21,5 17,6 16 9 29 16 W 1017,1 59 0 0,0
06.07.2020 22:00:00 13,5 9,1 11,6 16,7 21,8 17,6 13 7 29 16 W 1016,8 58 10 0,0
06.07.2020 21:00:00 14,1 10,1 12,5 18,4 22,1 17,6 14 7 29 16 W 1016,2 60 34 0,1
06.07.2020 20:00:00 15,0 9,5 14,3 21,1 22,2 17,5 14 8 41 22 W 1015,5 75 31 0,1
06.07.2020 19:00:00 16,5 7,7 16,5 23,1 22,1 17,5 22 12 43 23 W 1014,9 61 25 0,0
06.07.2020 18:00:00 17,4 7,9 19,8 25,0 22,0 17,5 16 9 43 23 W 1014,1 67 24 0,0
06.07.2020 17:00:00 18,3 7,9 21,5 27,2 21,9 17,5 27 15 44 24 W 1013,4 63 50 0,0
06.07.2020 16:00:00 16,6 9,3 18,5 22,1 21,8 17,5 19 11 37 20 W 1013,2 47 1 0,0
06.07.2020 15:00:00 14,8 11,3 14,2 24,4 21,5 17,5 17 9 41 22 W 1013,3 28 21 0,2
06.07.2020 14:00:00 18,4 9,0 22,7 26,9 21,0 17,5 11 6 47 25 WNW 1012,2 49 10 0,0
06.07.2020 13:00:00 20,4 7,4 25,6 29,8 20,5 17,5 24 13 46 25 WSW 1011,2 53 44 0,0
06.07.2020 12:00:00 18,5 6,4 21,6 25,8 20,1 17,5 22 12 41 22 W 1011,3 42 35 0,0
06.07.2020 11:00:00 18,2 7,8 21,6 23,0 19,9 17,5 20 11 48 26 W 1011,1 37 31 0,0
06.07.2020 10:00:00 16,8 8,0 17,2 21,5 19,8 17,5 21 12 48 26 W 1010,9 38 36 0,0
06.07.2020 09:00:00 17,0 8,4 19,1 19,6 19,9 17,5 26 14 44 24 W 1010,7 36 58 0,0
06.07.2020 08:00:00 16,6 9,7 17,4 17,0 20,1 17,5 21 11 36 19 WSW 1010,2 34 55 0,0
06.07.2020 07:00:00 15,7 10,9 15,8 15,6 20,4 17,5 14 7 32 17 WSW 1009,8 48 60 0,0
06.07.2020 06:00:00 15,3 10,2 13,4 14,9 20,8 17,5 16 9 29 16 WSW 1009,5 45 11 0,0
06.07.2020 05:00:00 15,4 11,2 12,9 15,3 21,1 17,5 11 6 23 12 WSW 1009,1 55 0 0,0
06.07.2020 04:00:00 16,3 11,9 13,6 16,2 21,4 17,5 10 5 18 10 WSW 1008,9 56 0 0,0
06.07.2020 03:00:00 17,5 14,0 14,9 17,5 21,7 17,5 8 5 16 9 W 1008,9 63 0 0,0
06.07.2020 02:00:00 18,2 15,4 16,2 18,1 22,0 17,5 9 5 16 9 WSW 1008,6 65 0 0,0
06.07.2020 01:00:00 18,3 16,7 16,3 18,4 22,4 17,5 8 5 15 8 SW 1008,7 54 0 0,0
06.07.2020 00:00:00 19,4 16,8 17,4 19,2 22,7 17,5 9 5 21 12 WSW 1008,8 70 0 0,0
05.07.2020 23:00:00 20,0 17,0 18,0 20,3 23,0 17,5 11 6 24 13 SW 1009,0 75 0 0,4
05.07.2020 22:00:00 20,5 17,3 18,6 20,6 23,3 17,5 11 6 25 13 SW 1008,9 70 6 0,0
05.07.2020 21:00:00 21,0 17,9 18,9 21,7 23,5 17,5 15 8 27 15 SW 1008,8 75 21 0,0
05.07.2020 20:00:00 20,8 17,9 19,3 22,7 23,7 17,5 22 12 35 19 WSW 1009,2 75 0 0,3
05.07.2020 19:00:00 20,7 18,7 19,8 23,9 23,9 17,5 14 7 40 21 W 1009,4 56 0 0,3
05.07.2020 18:00:00 22,1 17,7 21,3 24,8 23,9 17,5 12 6 29 16 WNW 1009,3 50 0 0,1
05.07.2020 17:00:00 25,7 16,0 25,1 27,6 23,8 17,5 14 8 38 21 WSW 1008,8 55 1 0,0
05.07.2020 16:00:00 26,7 15,8 27,6 31,1 23,5 17,5 19 11 39 21 WSW 1008,6 56 6 0,0
05.07.2020 15:00:00 26,4 15,5 28,3 30,1 23,0 17,5 20 11 43 23 SW 1008,9 66 11 0,0
05.07.2020 14:00:00 25,5 15,5 27,7 33,5 22,6 17,5 28 15 47 26 SW 1009,4 60 32 0,0
05.07.2020 13:00:00 25,1 15,9 27,8 29,1 22,3 17,5 21 11 41 22 SW 1010,0 70 11 0,0
05.07.2020 12:00:00 24,1 15,3 25,1 27,8 22,0 17,5 22 12 43 23 SW 1009,9 48 22 0,0
05.07.2020 11:00:00 24,1 15,7 26,6 25,9 21,8 17,5 22 12 38 21 SW 1010,2 64 5 0,0
05.07.2020 10:00:00 23,0 15,7 23,2 24,4 21,8 17,5 23 12 37 20 SW 1010,3 70 0 0,0
05.07.2020 09:00:00 22,3 15,8 22,4 23,5 21,7 17,5 18 10 37 20 SW 1010,1 59 1 0,0
05.07.2020 08:00:00 21,5 15,7 21,5 22,5 21,8 17,5 19 10 35 19 SW 1010,4 59 7 0,0
05.07.2020 07:00:00 20,8 15,4 20,6 21,4 21,9 17,5 18 10 31 17 SW 1010,5 75 0 0,0
05.07.2020 06:00:00 20,5 14,7 19,8 20,8 22,1 17,5 12 6 21 11 SW 1010,7 62 0 0,0
05.07.2020 05:00:00 20,5 14,1 19,6 20,8 22,3 17,5 10 6 19 11 SW 1010,9 60 0 0,0
05.07.2020 04:00:00 20,7 13,7 19,6 20,9 22,5 17,5 11 6 18 10 SW 1011,2 69 0 0,0
05.07.2020 03:00:00 20,8 13,7 19,8 21,2 22,7 17,5 10 5 18 10 SSW 1011,7 69 0 0,0
05.07.2020 02:00:00 20,9 13,7 19,9 21,6 22,9 17,5 9 5 18 10 SW 1012,1 60 0 0,0
05.07.2020 01:00:00 20,4 14,4 19,4 22,0 23,2 17,5 5 3 9 5 S 1012,4 59 0 0,0
05.07.2020 00:00:00 20,6 14,4 19,5 22,4 23,4 17,5 4 2 10 5 WSW 1012,7 59 0 0,0
04.07.2020 23:00:00 21,3 13,8 20,3 22,9 23,6 17,5 7 4 16 9 W 1013,1 60 0 0,0
04.07.2020 22:00:00 22,5 12,9 21,3 23,6 23,8 17,5 9 5 20 11 WSW 1012,9 71 0 0,0
04.07.2020 21:00:00 23,0 12,6 22,1 24,7 23,9 17,5 10 5 23 12 WSW 1012,6 72 0 0,0
04.07.2020 20:00:00 23,6 12,0 22,9 26,0 24,0 17,5 14 7 33 18 SW 1012,7 58 0 0,0
04.07.2020 19:00:00 24,1 11,8 24,6 27,6 23,9 17,5 19 11 36 19 SW 1012,7 51 1 0,0
04.07.2020 18:00:00 24,5 11,2 24,9 29,4 23,7 17,5 20 11 38 21 SW 1012,8 48 4 0,0
04.07.2020 17:00:00 24,7 10,7 25,4 30,9 23,4 17,5 20 11 36 20 SSW 1013,0 54 4 0,0
04.07.2020 16:00:00 24,3 10,0 26,4 32,2 23,0 17,5 22 12 41 22 SW 1013,5 49 15 0,0
04.07.2020 15:00:00 23,7 10,3 26,6 30,8 22,6 17,5 23 13 42 23 SW 1013,9 75 3 0,0
04.07.2020 14:00:00 22,3 10,2 24,4 30,6 22,1 17,5 23 12 40 22 SW 1014,5 58 1 0,0
04.07.2020 13:00:00 22,3 10,3 26,0 31,2 21,6 17,5 20 11 43 23 WSW 1015,1 75 38 0,0
04.07.2020 12:00:00 22,2 10,9 26,0 28,2 21,2 17,5 13 7 35 19 SSW 1015,3 45 3 0,0
04.07.2020 11:00:00 21,3 10,5 23,7 27,4 20,8 17,5 20 11 38 20 WSW 1015,8 72 26 0,0
04.07.2020 10:00:00 20,8 10,6 23,9 25,0 20,6 17,5 16 9 29 16 W 1015,8 64 13 0,0
04.07.2020 09:00:00 20,0 11,4 21,4 23,6 20,5 17,5 17 9 35 19 SW 1015,7 49 49 0,0
04.07.2020 08:00:00 18,8 11,9 21,4 20,6 20,6 17,5 11 6 21 11 SSW 1015,7 43 53 0,0
04.07.2020 07:00:00 16,1 11,5 15,6 17,5 20,8 17,5 9 5 16 9 SW 1016,0 44 23 0,0
04.07.2020 06:00:00 14,2 11,2 12,6 16,0 21,2 17,5 8 5 13 7 SW 1016,1 38 15 0,0
04.07.2020 05:00:00 14,4 11,1 12,4 16,3 21,6 17,5 10 5 16 9 SSW 1016,2 35 0 0,0
04.07.2020 04:00:00 14,6 11,0 12,7 16,8 22,0 17,5 11 6 18 10 SW 1016,4 44 0 0,0
04.07.2020 03:00:00 15,4 11,0 13,4 17,3 22,4 17,5 10 6 16 9 SW 1016,6 41 0 0,0
04.07.2020 02:00:00 15,3 11,0 12,5 17,8 22,8 17,5 10 5 14 8 SSW 1016,7 47 0 0,0
04.07.2020 01:00:00 15,0 10,9 11,4 18,4 23,3 17,5 8 4 13 7 SW 1017,0 48 0 0,0
04.07.2020 00:00:00 15,3 10,9 11,0 19,2 23,8 17,5 7 4 10 5 SW 1017,0 42 0 0,0
03.07.2020 23:00:00 16,2 11,1 11,9 20,4 24,2 17,5 5 3 13 7 WSW 1016,9 42 0 0,0

tt = Température de l'air
td = dewpoint
tt 5cm = Température de l'air 5cm
tt -5cm = Température de l'air -5cm
tt -20cm = Température de l'air -20cm
tt -100cm = Température de l'air -100cm
ff = Vitesse du vent
fx = gusts
dd = Direction du vent
ppp = reduced air pressure
vv = visibility
sd = Ensoleillement
rr = Quantités de précipitations

stations d'obs. à proximité